OZ1IEP-5 Weather Reports


time (UTC)temp
C
wind
direction
speed
KPH
gust
KPH
rain 1hr
cm
rain 24hr
cm
rain mn
cm
humidity
%
barometer
mb
20260905120007 17 241 0.0 14.5 0.00 0.84 0.00 75 1006.2
20260905115006 17 256 0.0 16.1 0.00 0.89 0.00 75 1006.2
20260905114005 17 236 0.0 19.3 0.00 0.91 0.00 75 1006.1
20260905113008 17 249 0.0 19.3 0.00 0.97 0.00 74 1006.1
20260905112006 17 255 0.0 11.3 0.00 0.99 0.00 73 1005.8
20260905111005 17 226 0.0 9.7 0.00 0.99 0.00 76 1005.7
20260905110008 17 244 0.0 4.8 0.00 1.02 0.00 75 1005.7
20260905105005 17 247 0.0 4.8 0.00 1.04 0.00 77 1005.6
20260905104006 17 258 1.6 14.5 0.00 1.04 0.00 76 1005.6
20260905103008 17 215 0.0 8.0 0.00 1.07 0.00 77 1005.6
20260905102005 17 237 1.6 14.5 0.00 1.09 0.00 76 1005.5
20260905101005 17 213 0.0 14.5 0.00 1.09 0.00 78 1005.3
20260905100007 16 265 0.0 11.3 0.00 1.09 0.00 77 1005.3
20260905095005 17 270 0.0 11.3 0.00 1.09 0.00 77 1005.3
20260905094005 17 250 1.6 19.3 0.00 1.09 0.00 76 1005.2
20260905093008 16 251 1.6 24.1 0.00 1.12 0.00 77 1005.1
20260905092005 16 265 0.0 11.3 0.00 1.14 0.00 75 1005.0
20260905091005 16 247 1.6 16.1 0.00 1.14 0.00 75 1004.9
20260905090007 16 274 0.0 19.3 0.00 1.14 0.00 76 1004.9
20260905085005 16 247 1.6 20.9 0.00 1.14 0.00 77 1004.8
20260905084005 16 230 1.6 16.1 0.00 1.17 0.00 78 1004.7
20260905083008 16 240 0.0 4.8 0.00 1.17 0.00 80 1004.6
20260905082006 16 246 1.6 16.1 0.00 1.17 0.00 80 1004.6
20260905081005 16 249 1.6 20.9 0.00 1.17 0.00 79 1004.6
20260905080007 16 234 1.6 20.9 0.00 1.17 0.00 79 1004.5
20260905075005 16 231 4.8 20.9 0.00 1.17 0.00 80 1004.3
20260905074006 16 251 3.2 19.3 0.00 1.17 0.00 82 1004.2
20260905073007 16 242 1.6 12.9 0.00 1.17 0.00 82 1004.2
20260905072005 15 245 1.6 11.3 0.00 1.17 0.00 83 1004.1
20260905071006 15 258 1.6 16.1 0.00 1.17 0.00 84 1004.1
20260905070007 15 236 3.2 22.5 0.00 1.17 0.00 86 1004.0
20260905065006 15 242 0.0 19.3 0.00 1.17 0.00 86 1004.0
20260905064005 15 228 1.6 14.5 0.00 1.17 0.00 87 1004.0
20260905063010 15 248 1.6 19.3 0.00 1.17 0.00 87 1004.0
20260905062006 15 233 1.6 22.5 0.00 1.17 0.00 87 1004.0
20260905061007 15 239 1.6 20.9 0.00 1.17 0.00 88 1003.8
20260905060009 14 247 1.6 16.1 0.00 1.17 0.00 88 1003.6
20260905055008 14 250 1.6 19.3 0.00 1.17 0.00 88 1003.5
20260905054006 14 238 0.0 16.1 0.00 1.17 0.00 88 1003.5
20260905053010 14 256 1.6 14.5 0.00 1.17 0.00 87 1003.5
20260905052006 14 234 3.2 25.7 0.00 1.17 0.00 87 1003.5
20260905051006 14 246 0.0 11.3 0.00 1.17 0.00 87 1003.4
20260905050007 14 242 1.6 9.7 0.00 1.17 0.00 87 1003.1
20260905045005 14 257 0.0 9.7 0.00 1.17 0.00 87 1003.0
20260905044005 14 251 0.0 4.8 0.00 1.17 0.00 87 1003.0
20260905043007 14 231 0.0 9.7 0.00 1.17 0.00 86 1002.9
20260905042005 14 236 1.6 11.3 0.00 1.17 0.00 86 1002.8
20260905041005 14 240 0.0 19.3 0.00 1.17 0.00 86 1002.7
20260905040008 14 262 1.6 16.1 0.00 1.17 0.00 87 1002.6
20260905035005 14 240 0.0 14.5 0.00 1.17 0.00 87 1002.5
20260905034007 14 252 1.6 19.3 0.00 1.17 0.00 87 1002.4
20260905033008 14 247 1.6 16.1 0.00 1.17 0.00 87 1002.4
20260905032005 14 235 0.0 14.5 0.00 1.17 0.00 87 1002.4
20260905031006 14 228 0.0 14.5 0.00 1.17 0.00 87 1002.4
20260905030008 14 255 1.6 14.5 0.00 1.17 0.00 87 1002.3
20260905025006 14 237 1.6 14.5 0.00 1.17 0.00 87 1002.1
20260905024006 14 259 0.0 4.8 0.00 1.17 0.00 87 1001.9
20260905023008 14 252 0.0 8.0 0.00 1.17 0.00 87 1001.9
20260905022006 14 266 0.0 4.8 0.00 1.17 0.00 87 1001.9
20260905021005 14 271 1.6 16.1 0.00 1.17 0.00 87 1001.8
20260905020007 14 291 1.6 16.1 0.00 1.17 0.00 87 1001.5
20260905015005 14 275 0.0 8.0 0.00 1.17 0.00 88 1001.4
20260905014006 14 269 0.0 4.8 0.00 1.17 0.00 88 1001.4
20260905013007 14 280 0.0 9.7 0.00 1.17 0.00 89 1001.1
20260905012006 14 256 0.0 8.0 0.00 1.17 0.00 89 1001.0
20260905011005 14 267 1.6 14.5 0.00 1.17 0.00 89 1000.9
20260905010008 14 279 0.0 16.1 0.00 1.17 0.00 89 1000.8
20260905005005 14 248 0.0 16.1 0.00 1.17 0.00 89 1000.9
20260905004006 14 259 0.0 9.7 0.00 1.17 0.00 89 1000.8
20260905003008 14 205 0.0 9.7 0.00 1.17 0.00 89 1000.5
20260905002005 14 241 1.6 14.5 0.00 1.17 0.00 89 1000.4
20260905001005 14 254 3.2 22.5 0.00 1.19 0.00 89 1000.3
20260905000008 14 257 1.6 14.5 0.00 1.19 0.00 89 1000.4
20260904235005 14 249 1.6 19.3 0.00 1.19 0.00 89 1000.3
20260904234006 14 258 1.6 19.3 0.00 1.19 0.00 90 1000.3
20260904233008 14 236 3.2 29.0 0.00 1.22 0.00 89 1000.3
20260904232005 14 250 0.0 19.3 0.00 1.27 0.00 89 1000.2
20260904231006 14 247 1.6 14.5 0.00 1.27 0.00 89 1000.1
20260904230007 14 233 0.0 25.7 0.00 1.27 0.00 89 1000.2
20260904225006 14 263 1.6 19.3 0.00 1.27 0.00 89 1000.1
20260904224005 14 237 0.0 14.5 0.00 1.27 0.00 89 1000.2
20260904223007 14 236 1.6 20.9 0.00 1.27 0.00 90 1000.2
20260904222006 14 250 0.0 20.9 0.00 1.27 0.00 90 1000.1
20260904221005 14 245 3.2 19.3 0.00 1.27 0.00 90 1000.1
20260904220008 14 261 1.6 20.9 0.00 1.27 0.00 90 1000.0
20260904215006 14 255 3.2 25.7 0.00 1.27 1.27 90 999.8
20260904214005 14 249 3.2 16.1 0.00 1.27 1.27 90 999.8
20260904213008 14 249 8.0 24.1 0.00 1.27 1.27 90 999.8
20260904212006 14 245 4.8 22.5 0.00 1.27 1.27 91 999.7
20260904211005 14 248 8.0 22.5 0.00 1.27 1.27 91 999.7
20260904210007 13 264 4.8 24.1 0.00 1.27 1.27 91 999.5
20260904205006 13 256 1.6 14.5 0.00 1.27 1.27 91 999.4
20260904204006 13 287 4.8 19.3 0.00 1.27 1.27 92 999.3
20260904203008 13 248 4.8 24.1 0.00 1.27 1.27 92 999.3
20260904202005 14 254 4.8 19.3 0.00 1.27 1.27 93 999.2
20260904201006 14 217 4.8 22.5 0.00 1.27 1.27 93 999.1
20260904200008 14 266 8.0 22.5 0.03 1.27 1.27 93 998.9
20260904195005 14 234 6.4 24.1 0.03 1.27 1.27 93 998.8
20260904194006 14 268 4.8 19.3 0.10 1.27 1.27 94 998.6
20260904193008 14 230 3.2 9.7 0.10 1.27 1.27 94 998.7
20260904192005 14 257 3.2 19.3 0.10 1.27 1.27 94 998.6
20260904191005 14 239 4.8 19.3 0.13 1.27 1.27 94 998.4
20260904190017 14 232 6.4 20.9 0.10 1.24 1.24 93 998.2
20260904185005 14 223 3.2 22.5 0.10 1.24 1.24 93 998.1
20260904184006 14 239 9.7 20.9 0.03 1.17 1.17 93 998.0
20260904183008 14 238 4.8 11.3 0.03 1.17 1.17 93 998.0
20260904182005 14 237 4.8 20.9 0.03 1.17 1.17 93 997.9
20260904181005 14 219 3.2 19.3 0.00 1.14 1.14 93 997.9
20260904180007 14 197 3.2 14.5 0.00 1.14 1.14 93 997.8
20260904175005 14 229 1.6 9.7 0.00 1.14 1.14 93 997.8
20260904174006 15 213 1.6 9.7 0.00 1.14 1.14 93 997.8
20260904173008 15 205 0.0 12.9 0.00 1.14 1.14 93 997.8
20260904172006 15 198 3.2 12.9 0.00 1.14 1.14 93 997.8
20260904171005 15 233 1.6 14.5 0.00 1.14 1.14 93 997.8
20260904170008 15 236 3.2 14.5 0.00 1.14 1.14 93 997.9
20260904165005 15 209 0.0 3.2 0.00 1.14 1.14 93 997.7
20260904164005 15 216 0.0 4.8 0.00 1.14 1.14 93 997.4
20260904163008 15 235 0.0 3.2 0.00 1.14 1.14 93 997.7
20260904162005 15 220 1.6 12.9 0.00 1.14 1.14 93 997.7
20260904161005 15 213 1.6 8.0 0.00 1.14 1.14 93 997.7
20260904160008 15 179 1.6 12.9 0.00 1.14 1.14 93 997.9
20260904155005 15 228 1.6 14.5 0.00 1.14 1.14 93 997.9
20260904154008 15 220 3.2 14.5 0.00 1.14 1.14 93 998.1
20260904153007 15 218 3.2 14.5 0.03 1.14 1.14 93 998.1
20260904152005 15 230 1.6 11.3 0.03 1.14 1.14 93 998.0
20260904151005 15 232 1.6 16.1 0.03 1.14 1.14 94 998.0
20260904150008 15 229 3.2 11.3 0.03 1.14 1.14 94 998.0
20260904145005 15 220 1.6 11.3 0.03 1.14 1.14 94 997.9
20260904144006 15 220 4.8 12.9 0.05 1.17 1.14 94 998.1
20260904143008 15 222 3.2 9.7 0.03 1.14 1.12 94 998.0
20260904142006 15 236 1.6 4.8 0.05 1.17 1.12 93 998.2
20260904141005 15 224 1.6 11.3 0.15 1.19 1.12 93 998.2
20260904140008 14 231 1.6 11.3 0.25 1.19 1.12 93 998.2
20260904135006 14 221 1.6 9.7 0.46 1.19 1.12 93 998.2
20260904134006 14 203 0.0 8.0 0.58 1.17 1.09 93 998.5
20260904133008 14 297 0.0 19.3 0.64 1.17 1.09 93 998.4
20260904132006 14 301 1.6 32.2 0.64 1.17 1.09 93 998.4
20260904131006 15 336 22.5 32.2 0.56 1.07 0.99 93 998.1
20260904130008 16 184 3.2 16.1 0.43 0.94 0.86 93 998.0
20260904125005 16 185 3.2 8.0 0.30 0.74 0.66 93 998.2
20260904124006 16 176 3.2 11.3 0.18 0.61 0.51 93 998.2
20260904123008 16 145 1.6 4.8 0.15 0.53 0.46 93 998.2
20260904122006 16 162 1.6 4.8 0.15 0.51 0.43 93 998.3
20260904121006 16 200 1.6 8.0 0.15 0.51 0.43 93 998.8